Terug naar catalogus

STARLINK-2658

ActiefCommunicatieVLEO
NORAD 48473·PAYLOAD·🇺🇸 United States

Gelanceerd May 9, 2021 vanaf Cape Canaveral Space Force Station

Loading…

Volgende Passages (komende 24 uur)

TLE

VersSource: CelesTrak SupGP

Epoch: Sep 14, 2026, 13:52 UTC

1 48473C 21040AX  26257.57826389 -.00017908  00000+0 -57591-3 0  2576
2 48473  53.1600  31.9620 0000969  97.5951 151.3978 15.31708443    15

Volg STARLINK-2658 in realtime met AllMySat

Download on the App Store